When you browse on this site, cookies collect data to enhance your experience and personalize the content and advertising you see.
Visit our Privacy Policy to learn more. By continuing to use the site, you agree to this use of cookies and data.
  • In Spain
  • List of Countries
  • For 7 days
  • Water Temperature
  • Satellite Maps
  • Weather Map
  • Weather Widgets
  • user-avatar
    Login

    Hourly Weather Bosangoa

    Today, 21 April, Sunday

    Time Temperature Precipitation Wind Pressure Humidity
    00:00 +28°C° 0 mm 1 mps 707 mmHg 63%
    01:00 +27°C° 0 mm 2 mps 707 mmHg 66%
    02:00 +27°C° 0 mm 2 mps 707 mmHg 67%
    03:00 +26°C° 0 mm 2 mps 707 mmHg 68%
    04:00 +26°C° 0 mm 2 mps 707 mmHg 69%
    05:00 +26°C° 0 mm 2 mps 707 mmHg 68%
    06:00 +27°C° 0 mm 2 mps 707 mmHg 67%
    07:00 +28°C° 0 mm 2 mps 708 mmHg 64%
    08:00 +31°C° 0 mm 2 mps 708 mmHg 55%
    09:00 +35°C° 0 mm 2 mps 708 mmHg 47%
    10:00 +37°C° 0 mm 2 mps 709 mmHg 38%
    11:00 +39°C° 0 mm 2 mps 708 mmHg 33%
    12:00 +40°C° 0 mm 2 mps 708 mmHg 28%
    13:00 +45°C° 0 mm 5 mps 706 mmHg 15%
    14:00 +43°C° 0 mm 4 mps 706 mmHg 18%
    15:00 +42°C° 0 mm 4 mps 706 mmHg 21%
    16:00 +41°C° 0 mm 4 mps 706 mmHg 24%
    17:00 +38°C° 0 mm 3 mps 706 mmHg 30%
    18:00 +35°C° 0 mm 2 mps 705 mmHg 37%
    19:00 +32°C° 0 mm 1 mps 705 mmHg 43%
    20:00 +31°C° 0 mm 1 mps 705 mmHg 47%
    21:00 +30°C° 0 mm 1 mps 705 mmHg 50%
    22:00 +29°C° 0 mm 1 mps 705 mmHg 54%
    23:00 +28°C° 0 mm 1 mps 706 mmHg 56%

    Tomorrow, 22 April, Monday

    Time Temperature Precipitation Wind Pressure Humidity
    00:00 +27°C° 0 mm 1 mps 706 mmHg 57%
    01:00 +27°C° 0 mm 2 mps 706 mmHg 59%
    02:00 +26°C° 0 mm 1 mps 706 mmHg 64%
    03:00 +26°C° 0 mm 1 mps 706 mmHg 69%
    04:00 +25°C° 0 mm 1 mps 706 mmHg 73%
    05:00 +26°C° 0 mm 2 mps 707 mmHg 73%
    06:00 +27°C° 0 mm 3 mps 707 mmHg 72%
    07:00 +28°C° 0 mm 3 mps 708 mmHg 71%
    08:00 +29°C° 0 mm 3 mps 708 mmHg 65%
    09:00 +31°C° 0 mm 3 mps 708 mmHg 58%
    10:00 +34°C° 0 mm 3 mps 709 mmHg 51%
    11:00 +37°C° 0 mm 2 mps 708 mmHg 42%
    12:00 +39°C° 0 mm 2 mps 708 mmHg 33%
    13:00 +42°C° 0 mm 1 mps 708 mmHg 25%
    14:00 +41°C° 0 mm 1 mps 707 mmHg 25%
    15:00 +40°C° 0 mm 2 mps 706 mmHg 25%
    16:00 +39°C° 0 mm 2 mps 706 mmHg 25%
    17:00 +37°C° 0 mm 2 mps 706 mmHg 30%
    18:00 +34°C° 0 mm 1 mps 706 mmHg 36%
    19:00 +31°C° 0 mm 1 mps 706 mmHg 41%
    20:00 +31°C° 0 mm 1 mps 707 mmHg 44%
    21:00 +30°C° 0 mm 2 mps 707 mmHg 46%
    22:00 +29°C° 0 mm 2 mps 707 mmHg 48%
    23:00 +29°C° 0 mm 2 mps 707 mmHg 53%

    Day after tomorrow, 23 April, Tuesday

    Time Temperature Precipitation Wind Pressure Humidity
    00:00 +28°C° 0 mm 2 mps 707 mmHg 59%
    01:00 +28°C° 0 mm 2 mps 706 mmHg 64%
    02:00 +27°C° 0 mm 2 mps 706 mmHg 67%
    03:00 +27°C° 0 mm 2 mps 706 mmHg 69%
    04:00 +26°C° 0 mm 2 mps 705 mmHg 72%
    05:00 +27°C° 0 mm 2 mps 706 mmHg 70%
    06:00 +27°C° 0 mm 3 mps 707 mmHg 69%
    07:00 +28°C° 0 mm 3 mps 707 mmHg 67%
    08:00 +30°C° 0 mm 3 mps 708 mmHg 58%
    09:00 +34°C° 0 mm 2 mps 708 mmHg 49%
    10:00 +37°C° 0 mm 2 mps 709 mmHg 40%
    11:00 +39°C° 0 mm 2 mps 708 mmHg 34%
    12:00 +41°C° 0 mm 2 mps 708 mmHg 28%
    13:00 +42°C° 0 mm 2 mps 707 mmHg 22%
    14:00 +42°C° 0 mm 2 mps 707 mmHg 23%
    15:00 +41°C° 0 mm 2 mps 706 mmHg 24%
    16:00 +40°C° 0 mm 3 mps 705 mmHg 24%
    17:00 +38°C° 0 mm 2 mps 706 mmHg 30%
    18:00 +36°C° 0 mm 2 mps 706 mmHg 36%
    19:00 +32°C° 0 mm 1 mps 706 mmHg 42%
    20:00 +31°C° 0 mm 1 mps 707 mmHg 44%
    21:00 +31°C° 0 mm 1 mps 707 mmHg 46%
    22:00 +30°C° 0 mm 1 mps 708 mmHg 48%
    23:00 +29°C° 0 mm 1 mps 708 mmHg 50%

    24 April, Wednesday

    Time Temperature Precipitation Wind Pressure Humidity
    00:00 +29°C° 0 mm 2 mps 707 mmHg 53%
    01:00 +28°C° 0 mm 2 mps 707 mmHg 55%
    02:00 +28°C° 0 mm 2 mps 706 mmHg 57%
    03:00 +27°C° 0 mm 2 mps 706 mmHg 59%
    04:00 +27°C° 0 mm 2 mps 706 mmHg 61%
    05:00 +27°C° 0 mm 2 mps 707 mmHg 62%
    06:00 +28°C° 0 mm 2 mps 707 mmHg 62%
    07:00 +29°C° 0 mm 2 mps 708 mmHg 62%
    08:00 +31°C° 0 mm 2 mps 708 mmHg 54%
    09:00 +35°C° 0 mm 2 mps 709 mmHg 46%
    10:00 +38°C° 0 mm 3 mps 709 mmHg 38%
    11:00 +41°C° 0 mm 2 mps 709 mmHg 31%
    12:00 +44°C° 0 mm 1 mps 709 mmHg 24%
    13:00 +46°C° 0 mm 1 mps 708 mmHg 18%
    14:00 +44°C° 0 mm 1 mps 707 mmHg 19%
    15:00 +42°C° 0 mm 1 mps 707 mmHg 20%
    16:00 +40°C° 0 mm 2 mps 706 mmHg 21%
    17:00 +37°C° 0 mm 1 mps 706 mmHg 26%
    18:00 +35°C° 0 mm 1 mps 706 mmHg 30%
    19:00 +33°C° 0 mm 1 mps 707 mmHg 34%
    20:00 +32°C° 0 mm 1 mps 707 mmHg 37%
    21:00 +31°C° 0 mm 2 mps 708 mmHg 40%
    22:00 +30°C° 0 mm 2 mps 708 mmHg 42%
    23:00 +30°C° 0 mm 2 mps 708 mmHg 45%

    25 April, Thursday

    Time Temperature Precipitation Wind Pressure Humidity
    00:00 +29°C° 0 mm 2 mps 707 mmHg 48%
    01:00 +29°C° 0 mm 2 mps 707 mmHg 50%
    02:00 +28°C° 0 mm 2 mps 707 mmHg 55%
    03:00 +28°C° 0 mm 3 mps 707 mmHg 59%
    04:00 +28°C° 0 mm 3 mps 707 mmHg 64%
    05:00 +28°C° 0 mm 3 mps 707 mmHg 64%
    06:00 +29°C° 0 mm 3 mps 708 mmHg 64%
    07:00 +29°C° 0 mm 3 mps 708 mmHg 65%
    08:00 +33°C° 0 mm 3 mps 709 mmHg 56%
    09:00 +36°C° 0 mm 2 mps 709 mmHg 47%
    10:00 +39°C° 0 mm 2 mps 709 mmHg 38%
    11:00 +41°C° 0 mm 2 mps 709 mmHg 31%
    12:00 +44°C° 0 mm 1 mps 708 mmHg 25%
    13:00 +47°C° 0 mm 1 mps 707 mmHg 18%
    14:00 +45°C° 0 mm 1 mps 707 mmHg 18%
    15:00 +44°C° 0 mm 1 mps 706 mmHg 18%
    16:00 +42°C° 0 mm 2 mps 705 mmHg 18%
    17:00 +40°C° 0 mm 1 mps 706 mmHg 22%
    18:00 +36°C° 0 mm 1 mps 706 mmHg 26%
    19:00 +33°C° 0 mm 1 mps 706 mmHg 31%
    20:00 +32°C° 0 mm 1 mps 706 mmHg 36%
    21:00 +32°C° 0 mm 2 mps 707 mmHg 41%
    22:00 +31°C° 0 mm 2 mps 707 mmHg 47%
    23:00 +30°C° 0 mm 2 mps 707 mmHg 52%

    26 April, Friday

    Time Temperature Precipitation Wind Pressure Humidity
    00:00 +30°C° 0 mm 3 mps 707 mmHg 57%
    01:00 +29°C° 0 mm 3 mps 707 mmHg 62%
    02:00 +29°C° 0 mm 3 mps 707 mmHg 64%
    03:00 +28°C° 0 mm 3 mps 706 mmHg 67%
    04:00 +28°C° 0 mm 2 mps 706 mmHg 69%
    05:00 +28°C° 0 mm 3 mps 707 mmHg 68%
    06:00 +28°C° 0 mm 3 mps 708 mmHg 66%
    07:00 +29°C° 0 mm 4 mps 708 mmHg 65%
    08:00 +32°C° 0 mm 4 mps 709 mmHg 57%
    09:00 +35°C° 0 mm 4 mps 709 mmHg 49%
    10:00 +37°C° 0 mm 4 mps 709 mmHg 42%
    11:00 +39°C° 0 mm 3 mps 708 mmHg 36%
    12:00 +42°C° 0 mm 3 mps 708 mmHg 30%
    13:00 +42°C° 0 mm 2 mps 707 mmHg 24%
    14:00 +42°C° 0 mm 2 mps 706 mmHg 23%
    15:00 +42°C° 0 mm 1 mps 706 mmHg 21%
    16:00 +42°C° 0 mm 1 mps 705 mmHg 20%
    17:00 +40°C° 0 mm 1 mps 705 mmHg 24%
    18:00 +36°C° 0 mm 1 mps 705 mmHg 28%
    19:00 +34°C° 0 mm 1 mps 705 mmHg 32%
    20:00 +33°C° 0 mm 1 mps 706 mmHg 37%
    21:00 +32°C° 0 mm 2 mps 706 mmHg 42%
    22:00 +30°C° 0 mm 2 mps 706 mmHg 47%
    23:00 +30°C° 0 mm 2 mps 706 mmHg 52%
    Show more